Wind_Speed
40 41 43 45 48 50 53 54 55 56 57 58 59 60 60 61 61 62 63 63 64 63 62 61 61 61 61 62 63 65 66 68 68 67 69 69 67 65 62 59 57 54 51
42 44 47 49 52 54 56 57 59 60 61 61 62 62 62 62 62 62 63 63 63 62 61 60 60 59 60 61 63 64 66 67 67 65 61 59 57 54 51 48 46 44 42
49 51 52 54 55 57 58 59 60 61 62 62 62 62 61 62 62 63 63 62 61 60 58 58 58 58 59 60 61 63 63 63 61 57 51 48 46 43 40 38 36 35 35
55 55 56 57 57 57 58 59 60 60 60 60 60 60 60 60 60 60 60 59 58 57 57 57 57 57 58 59 60 59 58 54 50 46 42 39 36 35 33 30 29 29 29
57 57 56 55 55 55 56 56 57 57 57 57 58 58 58 58 58 58 58 57 56 55 55 55 56 57 57 57 55 51 47 43 40 36 33 30 28 27 25 24 23 23 23
57 56 55 54 53 53 53 53 54 54 55 55 56 56 56 56 56 56 55 54 53 53 53 54 55 54 53 50 46 41 38 34 31 27 25 23 21 20 19 19 18 18 18
56 54 53 52 51 50 50 51 52 52 53 54 54 54 54 54 53 52 51 51 51 52 52 52 51 48 44 39 35 32 29 26 23 21 19 17 17 17 17 17 17 16 16
51 50 49 47 47 48 48 48 49 49 50 50 51 50 50 49 49 48 49 50 50 50 49 47 43 38 33 29 26 23 21 20 18 17 16 16 16 16 16 16 16 15 15
47 45 44 44 44 44 45 46 47 47 48 48 49 48 46 46 46 46 46 46 45 44 41 37 32 28 23 20 18 16 16 15 15 15 15 16 16 16 16 15 15 15 14
42 41 41 41 42 43 44 45 46 46 46 45 44 44 44 44 43 42 41 39 37 35 32 29 24 20 16 14 12 12 12 12 13 14 15 15 16 16 15 15 14 14 13
38 38 39 40 41 42 42 43 43 42 42 42 42 42 41 39 38 36 34 31 29 27 25 22 18 14 11 10 9 9 10 11 13 14 15 15 15 15 15 14 13 13 12
36 36 38 38 39 39 39 40 40 40 40 39 38 37 35 33 31 29 27 24 22 20 18 15 11 9 7 7 7 8 9 11 12 13 14 15 15 15 14 14 14 13 12
34 35 36 37 38 38 38 38 38 37 35 34 32 31 28 26 25 23 21 18 16 14 11 8 6 4 5 6 7 8 10 11 13 14 14 14 14 14 14 14 15 15 13
33 34 35 36 36 37 36 35 34 32 30 28 25 24 22 21 20 18 16 14 11 8 5 3 3 3 5 6 7 8 10 12 13 14 14 15 15 15 15 16 16 17 16
32 34 34 35 34 34 32 30 27 25 23 21 20 19 18 17 16 15 13 10 7 3 1 3 3 4 5 6 7 9 10 12 14 15 16 16 16 16 16 16 17 17 17
33 33 33 32 30 28 25 23 21 20 18 17 16 15 15 14 13 11 8 5 2 2 4 5 5 6 7 7 8 9 11 12 14 15 17 17 18 17 17 17 17 17 17
32 31 29 27 24 22 20 18 17 16 15 15 14 13 13 12 9 6 3 1 3 5 6 6 7 8 8 8 9 10 11 12 14 15 17 18 18 18 18 18 18 18 18
29 27 25 22 19 18 16 15 14 13 13 12 11 11 10 8 5 2 3 5 7 8 7 7 8 8 9 9 10 11 12 13 14 15 17 18 18 19 19 19 18 19 19
25 23 20 18 16 15 14 12 11 10 10 9 8 7 6 5 4 5 7 8 9 8 8 8 8 9 9 10 11 12 13 13 14 15 17 17 18 19 19 19 19 20 19
21 19 17 15 13 12 11 9 8 7 7 6 6 6 5 6 7 9 10 10 9 9 9 9 9 10 10 11 12 13 13 14 15 16 17 18 18 19 19 20 21 21 21
19 17 15 13 11 9 8 7 6 6 6 6 7 8 9 10 11 11 11 10 10 9 9 10 10 10 11 12 13 13 14 15 16 17 17 18 18 19 20 20 20 21 22
19 17 14 11 9 8 7 7 7 7 8 9 10 11 11 12 12 12 11 10 10 10 10 11 11 12 12 13 13 14 14 15 16 17 17 18 18 19 20 21 21 21 22
18 16 14 12 11 9 9 9 10 10 11 12 12 13 13 13 13 12 11 11 10 10 11 11 12 12 13 13 13 14 15 15 16 17 17 18 19 19 20 21 21 22 22
19 17 16 14 13 13 12 13 13 14 14 14 15 15 15 14 13 12 12 11 11 11 12 12 12 13 13 13 14 14 15 15 15 16 17 18 19 20 21 21 21 21 22
21 20 19 17 17 16 16 16 16 16 16 16 16 16 15 15 14 13 13 12 12 12 12 12 13 13 13 14 14 14 14 14 15 16 17 18 19 20 20 21 21 21 22
24 23 22 21 20 19 18 18 18 17 17 17 17 16 16 15 15 14 14 14 14 13 13 13 13 13 13 14 13 13 13 13 14 15 16 17 18 18 19 19 20 20 21
Wind_Direction
287 289 289 289 289 289 289 289 289 288 289 290 291 292 292 293 293 294 294 295 297 298 298 299 298 298 296 295 294 294 294 294 294 293 292 291 290 289 287 286 283 280 277
286 287 287 287 287 288 287 287 287 288 289 290 291 291 292 293 294 294 295 296 298 299 299 299 299 298 296 295 295 296 296 296 296 296 294 293 292 291 290 287 285 281 278
288 288 288 288 287 287 287 287 287 288 289 290 290 291 292 293 294 295 297 298 299 300 299 299 298 297 297 298 298 298 298 298 299 299 298 296 295 293 292 290 288 284 280
289 289 288 288 287 287 287 287 287 288 289 290 291 291 293 294 296 297 298 299 299 299 299 299 299 299 299 299 300 300 300 301 302 302 301 299 296 295 294 293 291 287 284
290 290 290 289 289 288 288 287 288 288 289 290 291 293 295 296 298 298 299 299 299 299 299 299 299 300 300 301 301 302 303 304 304 305 305 303 300 299 299 298 295 291 288
292 292 291 291 290 289 288 288 288 289 290 292 293 295 297 299 299 299 299 299 299 299 299 300 300 301 302 302 303 304 305 307 309 309 308 307 306 306 306 304 301 297 293
292 292 292 292 291 290 289 289 290 290 292 294 295 297 298 299 299 299 299 300 300 300 300 300 301 302 303 303 303 305 308 312 314 315 315 316 316 314 313 311 310 306 301
293 293 292 291 291 290 290 291 292 293 294 296 298 298 299 299 300 300 300 301 300 301 301 301 302 303 304 304 306 309 312 316 319 322 323 322 322 321 319 317 315 311 307
293 293 293 292 292 293 293 294 295 296 296 297 298 299 300 301 301 301 301 301 301 302 303 304 305 306 307 308 310 313 317 322 325 327 328 328 328 328 327 325 323 319 314
293 293 293 294 294 294 295 296 297 297 298 300 301 301 302 302 302 302 302 302 302 304 305 307 309 310 311 313 316 321 325 327 330 332 333 334 333 333 333 332 330 328 323
294 294 295 296 297 297 298 299 300 301 302 303 303 303 302 301 301 301 302 302 303 304 306 308 310 313 317 321 326 330 331 334 336 339 341 342 343 344 345 345 343 341 337
296 297 298 299 300 300 301 302 303 304 304 304 303 303 302 302 303 304 305 305 305 306 306 307 311 319 329 336 339 342 344 346 349 351 353 353 354 356 358 359 359 358 358
300 302 302 302 303 304 305 306 306 305 305 304 304 303 304 305 307 309 310 309 308 306 303 305 319 340 352 353 353 355 358 360 1 1 3 5 7 10 14 16 16 16 17
306 307 307 308 308 308 308 307 306 306 306 306 306 307 308 310 312 313 314 313 312 306 303 320 2 15 11 7 8 12 14 14 14 14 17 21 24 24 25 26 25 26 28
310 310 310 310 309 309 308 308 308 308 309 310 310 311 312 314 316 316 316 317 317 326 33 58 56 42 29 25 28 29 28 28 27 29 32 34 33 31 32 31 30 33 35
313 313 313 312 312 311 311 311 311 312 312 313 312 313 315 316 317 318 317 317 331 84 89 82 66 50 43 43 43 41 42 40 38 38 39 40 39 38 39 40 40 40 41
318 317 317 317 316 315 314 313 314 315 316 316 315 317 320 321 322 325 330 70 112 109 99 82 65 57 54 53 53 54 54 50 47 45 44 43 44 45 45 46 46 47 48
323 322 321 321 320 320 320 318 317 317 318 320 320 323 328 333 343 18 97 115 113 109 94 77 66 61 60 61 62 63 62 59 54 50 47 47 47 48 48 50 50 51 53
328 328 328 326 326 326 327 326 325 325 327 330 333 338 347 9 52 93 109 113 110 100 86 74 67 65 65 69 71 69 67 63 57 52 50 50 51 52 52 54 54 56 57
336 335 333 332 331 332 335 338 340 344 350 358 8 23 44 68 89 101 107 107 102 92 80 72 72 72 75 78 77 75 71 64 58 54 53 54 56 56 57 58 59 62 64
345 343 341 340 341 345 352 2 10 17 27 40 50 61 72 85 94 98 102 101 95 85 76 75 79 81 83 84 82 79 73 67 62 58 58 58 59 60 62 62 63 65 68
356 355 357 2 9 16 26 35 39 48 60 67 72 76 82 89 92 95 96 94 88 82 79 82 85 87 89 89 85 81 75 70 66 62 60 60 61 62 64 64 65 67 70
10 15 22 30 38 46 54 59 66 73 76 78 80 81 86 89 91 90 89 88 85 83 85 88 89 91 92 90 86 82 78 73 68 65 65 64 64 65 65 66 66 68 70
27 32 39 46 53 61 67 73 78 79 81 82 83 84 87 87 86 84 84 84 85 88 90 91 93 95 95 93 89 85 81 76 71 69 70 69 69 68 67 67 67 68 70
39 45 51 57 64 70 74 78 80 81 83 84 84 85 85 83 82 80 81 84 88 93 94 94 95 96 97 95 91 88 84 79 75 75 75 75 74 73 71 70 70 70 71
49 54 58 62 67 72 77 80 81 81 82 83 83 84 82 80 79 78 80 84 88 94 96 97 97 97 97 96 93 90 87 83 80 79 78 77 77 76 75 74 72 72 72
Height
5777 5774 5771 5768 5764 5760 5755 5751 5747 5742 5738 5733 5728 5723 5718 5713 5707 5702 5696 5690 5684 5678 5672 5665 5659 5652 5645 5637 5630 5622 5614 5606 5601 5597 5584 5574 5566 5558 5552 5547 5543 5540 5538
5767 5763 5760 5756 5752 5748 5743 5738 5734 5729 5724 5719 5714 5709 5704 5698 5692 5687 5681 5675 5669 5662 5656 5649 5643 5635 5628 5621 5613 5605 5596 5587 5580 5575 5567 5556 5548 5541 5536 5532 5527 5525 5523
5756 5752 5748 5743 5739 5734 5730 5724 5720 5715 5710 5705 5700 5695 5689 5683 5678 5672 5666 5660 5653 5647 5641 5634 5627 5620 5612 5604 5596 5588 5580 5571 5562 5556 5550 5542 5535 5528 5524 5520 5516 5513 5511
5743 5739 5734 5730 5725 5720 5715 5711 5706 5701 5696 5691 5685 5680 5674 5669 5663 5657 5651 5645 5638 5632 5625 5618 5611 5604 5597 5589 5582 5573 5565 5557 5549 5542 5536 5530 5524 5519 5514 5511 5508 5504 5502
5729 5724 5720 5715 5710 5706 5701 5696 5691 5686 5681 5676 5671 5665 5660 5654 5648 5642 5636 5630 5624 5617 5610 5603 5596 5589 5582 5575 5567 5560 5552 5546 5539 5533 5527 5521 5516 5512 5508 5504 5501 5498 5495
5714 5709 5705 5700 5696 5691 5686 5681 5676 5671 5667 5662 5656 5651 5645 5640 5634 5628 5622 5615 5609 5603 5597 5590 5582 5575 5569 5562 5555 5549 5543 5537 5531 5526 5520 5515 5511 5507 5503 5499 5496 5493 5491
5700 5695 5690 5685 5681 5676 5672 5667 5663 5658 5653 5648 5642 5637 5632 5626 5620 5614 5608 5602 5595 5589 5583 5577 5570 5564 5558 5552 5546 5541 5535 5530 5525 5521 5516 5512 5508 5504 5500 5497 5493 5489 5487
5686 5681 5676 5672 5667 5663 5659 5654 5649 5644 5639 5634 5629 5624 5618 5613 5607 5601 5595 5588 5582 5576 5570 5565 5559 5554 5549 5544 5540 5535 5531 5526 5522 5518 5514 5510 5506 5502 5498 5494 5490 5487 5483
5673 5668 5664 5659 5655 5651 5646 5642 5637 5632 5627 5622 5617 5611 5606 5600 5595 5589 5582 5576 5570 5565 5560 5555 5551 5547 5543 5539 5535 5532 5528 5524 5520 5516 5512 5508 5504 5500 5495 5491 5488 5484 5481
5661 5657 5652 5648 5643 5639 5635 5630 5625 5620 5615 5609 5604 5599 5594 5588 5583 5577 5572 5566 5561 5556 5552 5548 5544 5541 5538 5535 5532 5529 5526 5523 5519 5515 5511 5507 5502 5498 5494 5489 5485 5481 5478
5651 5646 5642 5637 5633 5628 5623 5618 5613 5608 5603 5598 5593 5588 5583 5577 5572 5568 5563 5558 5554 5550 5546 5543 5540 5538 5535 5533 5531 5528 5525 5522 5518 5514 5510 5506 5501 5497 5492 5488 5484 5480 5476
5641 5637 5632 5627 5622 5617 5612 5607 5602 5597 5592 5587 5582 5577 5572 5568 5563 5559 5555 5552 5548 5545 5542 5540 5538 5536 5534 5532 5530 5527 5525 5522 5518 5514 5510 5505 5501 5496 5492 5488 5484 5479 5476
5632 5627 5622 5617 5612 5607 5602 5597 5592 5587 5582 5577 5573 5568 5564 5560 5557 5553 5550 5547 5544 5542 5540 5538 5537 5535 5534 5532 5530 5527 5525 5522 5518 5514 5510 5505 5501 5497 5493 5489 5485 5480 5476
5624 5619 5613 5608 5603 5598 5593 5588 5583 5578 5574 5570 5565 5562 5558 5555 5552 5549 5546 5544 5541 5540 5538 5537 5536 5535 5534 5532 5530 5528 5525 5522 5519 5515 5511 5507 5503 5499 5495 5491 5487 5483 5479
5616 5611 5605 5600 5594 5589 5584 5579 5575 5571 5567 5564 5561 5557 5555 5552 5549 5546 5543 5541 5540 5539 5538 5537 5537 5536 5534 5533 5531 5529 5527 5524 5520 5517 5513 5509 5505 5501 5498 5494 5490 5486 5482
5608 5603 5597 5591 5586 5581 5577 5573 5569 5566 5563 5560 5557 5554 5551 5549 5546 5544 5542 5540 5539 5539 5539 5538 5538 5537 5535 5534 5533 5531 5529 5526 5523 5520 5517 5513 5509 5505 5501 5498 5494 5491 5487
5600 5594 5589 5583 5579 5575 5571 5568 5565 5562 5559 5556 5554 5551 5549 5546 5544 5542 5541 5540 5540 5540 5540 5540 5539 5538 5537 5536 5535 5533 5532 5529 5527 5524 5521 5517 5514 5510 5506 5503 5499 5496 5492
5593 5587 5582 5577 5574 5570 5567 5564 5561 5559 5556 5554 5552 5549 5547 5545 5543 5542 5541 5542 5542 5542 5542 5542 5541 5540 5539 5538 5537 5536 5535 5533 5531 5528 5525 5522 5519 5515 5512 5508 5505 5502 5498
5587 5582 5577 5573 5570 5566 5564 5561 5559 5556 5554 5552 5550 5548 5546 5545 5543 5543 5543 5543 5544 5544 5544 5544 5543 5542 5542 5541 5540 5539 5538 5536 5535 5532 5530 5527 5524 5521 5518 5514 5511 5508 5505
5583 5578 5574 5570 5567 5564 5561 5559 5557 5555 5553 5551 5550 5548 5547 5546 5545 5545 5545 5546 5546 5547 5546 5546 5545 5545 5544 5544 5543 5543 5542 5540 5539 5537 5535 5532 5529 5527 5524 5521 5518 5515 5512
5580 5575 5571 5567 5564 5562 5560 5558 5556 5555 5553 5552 5551 5549 5548 5548 5548 5548 5549 5549 5549 5549 5549 5548 5548 5548 5547 5547 5547 5546 5546 5545 5543 5542 5539 5537 5535 5532 5530 5527 5525 5522 5520
5578 5573 5569 5566 5563 5561 5560 5558 5557 5556 5555 5554 5553 5552 5552 5551 5551 5552 5552 5552 5552 5552 5552 5551 5551 5551 5551 5551 5551 5550 5550 5549 5548 5546 5545 5543 5540 5538 5536 5534 5532 5529 5527
5577 5573 5569 5566 5564 5562 5561 5560 5559 5558 5557 5557 5556 5556 5556 5556 5556 5556 5555 5555 5555 5555 5555 5554 5554 5554 5554 5555 5555 5554 5554 5553 5552 5551 5550 5548 5546 5544 5542 5540 5539 5537 5535
5579 5575 5571 5568 5566 5565 5564 5563 5562 5562 5561 5561 5561 5560 5560 5560 5560 5559 5559 5559 5558 5558 5558 5558 5558 5558 5558 5559 5559 5559 5559 5558 5557 5556 5555 5553 5552 5550 5549 5547 5545 5544 5542
5582 5578 5575 5572 5570 5569 5568 5567 5567 5567 5566 5566 5566 5565 5565 5565 5564 5564 5563 5562 5562 5562 5562 5562 5562 5562 5563 5563 5563 5563 5563 5563 5562 5561 5560 5559 5558 5556 5555 5554 5552 5551 5549
5587 5584 5581 5578 5576 5575 5574 5573 5573 5572 5572 5572 5571 5571 5570 5570 5569 5568 5567 5567 5566 5566 5566 5566 5566 5566 5567 5567 5567 5568 5568 5568 5567 5566 5565 5564 5563 5562 5561 5560 5559 5557 5556